McCook, NE

10:07 PM CST on February 17, 2018 (GMT -0600)
McCook Municipal

Weather History for KMCK - June, 2014

Change the Weather History Date:

Wednesday, June 11, 2014

  Actual Average Record
Temperature  
Mean Temperature 72 °F 68 °F  
Max Temperature 86 °F 82 °F 108 °F (2013)
Min Temperature 58 °F 55 °F 33 °F (1998)
Cooling Degree Days 6    
Growing Degree Days 20 (Base 50)    
Moisture  
Dew Point 57 °F    
Average Humidity 69    
Maximum Humidity 90    
Minimum Humidity 46    
Precipitation  
Precipitation 0.00 in 0.11 in 2.11 in (1960)
Month to date precipitation 4.34 1.25  
Year to date precipitation 9.30 9.19  
Sea Level Pressure  
Sea Level Pressure 29.76 in    
Wind  
Wind Speed 10 mph (East)    
Max Wind Speed 30 mph    
Max Gust Speed 39 mph    
Visibility 10 miles    
Events      
T = Trace of Precipitation, MM = Missing Value Source: NWS Daily Summary

Daily Weather History Graph

Daily Weather History Graph

Search for Another Location

Airport or City:

Trip Planner

Search our weather history database for the weather conditions in past years. The results will help you decide how hot, cold, wet, or windy it might be!

Date:

Astronomy

Jun. 11, 2014 Rise Set
Actual Time 6:12 AM CDT 9:11 PM CDT
Civil Twilight 5:39 AM CDT 9:44 PM CDT
Nautical Twilight 4:57 AM CDT 10:26 PM CDT
Astronomical Twilight 4:09 AM CDT 11:15 PM CDT
Moon 7:43 PM CDT (6/11) 5:03 AM CDT (6/11)
Length of Visible Light 16h 05m
Length of Day
14h 59m
Waxing Gibbous, 97% of the Moon is Illuminated
Jun 11
Waxing Gibbous
Jun 12
Full
Jun 19
Last Quarter
Jun 27
New
Jul 5
First Quarter

Hourly Weather History & Observations

Time (CDT) Temp. Heat Index Dew Point Humidity Pressure Visibility Wind Dir Wind Speed Gust Speed Precip Events Conditions
12:53 AM 62.1 °F - 57.0 °F 84% 29.79 in 10.0 mi SSE 8.1 mph - N/A   Clear
1:53 AM 61.0 °F - 55.9 °F 83% 29.78 in 10.0 mi ESE 9.2 mph - N/A   Clear
2:53 AM 60.1 °F - 55.9 °F 86% 29.76 in 10.0 mi SE 8.1 mph - N/A   Clear
3:53 AM 60.1 °F - 55.0 °F 83% 29.74 in 10.0 mi SSE 9.2 mph - N/A   Clear
4:53 AM 59.0 °F - 55.0 °F 87% 29.74 in 10.0 mi South 4.6 mph - N/A   Clear
5:53 AM 57.9 °F - 55.0 °F 90% 29.72 in 9.0 mi SE 8.1 mph - N/A   Clear
6:53 AM 59.0 °F - 55.0 °F 87% 29.73 in 8.0 mi SE 5.8 mph - N/A   Clear
7:53 AM 62.1 °F - 55.9 °F 80% 29.71 in 9.0 mi SSE 12.7 mph - N/A   Clear
8:53 AM 64.9 °F - 57.0 °F 75% 29.72 in 10.0 mi South 8.1 mph - N/A   Clear
9:53 AM 69.1 °F - 57.9 °F 68% 29.71 in 10.0 mi South 6.9 mph - N/A   Clear
10:53 AM 73.0 °F - 59.0 °F 61% 29.70 in 10.0 mi SE 4.6 mph - N/A   Clear
11:53 AM 75.0 °F - 57.9 °F 55% 29.70 in 10.0 mi Variable 3.5 mph - N/A   Clear
12:53 PM 79.0 °F - 60.1 °F 52% 29.69 in 10.0 mi South 4.6 mph - N/A   Clear
1:53 PM 81.0 °F 81.6 °F 60.1 °F 49% 29.69 in 10.0 mi Calm Calm - N/A   Clear
2:53 PM 84.9 °F 85.4 °F 62.1 °F 46% 29.69 in 10.0 mi North 9.2 mph - N/A   Clear
3:53 PM 84.9 °F 85.4 °F 62.1 °F 46% 29.68 in 10.0 mi NNE 11.5 mph - N/A   Clear
4:53 PM 84.0 °F 84.5 °F 62.1 °F 47% 29.70 in 10.0 mi NNE 13.8 mph - N/A   Clear
5:53 PM 79.0 °F - 63.0 °F 58% 29.73 in 10.0 mi North 24.2 mph 31.1 mph N/A   Clear
6:53 PM 71.1 °F - 59.0 °F 66% 29.82 in 10.0 mi NNW 29.9 mph 39.1 mph N/A   Clear
7:53 PM 66.9 °F - 55.9 °F 68% 29.88 in 10.0 mi NNW 21.9 mph 31.1 mph N/A   Clear
8:53 PM 66.0 °F - 55.0 °F 68% 29.88 in 10.0 mi NNW 12.7 mph - N/A   Clear
9:53 PM 64.9 °F - 54.0 °F 68% 29.83 in 10.0 mi NNW 18.4 mph 27.6 mph N/A   Clear
10:53 PM 64.9 °F - 54.0 °F 68% 29.91 in 10.0 mi North 11.5 mph - N/A   Clear
11:53 PM 63.0 °F - 55.0 °F 75% 29.95 in 10.0 mi North 13.8 mph - N/A   Clear